Time,TemperatureF,DewpointF,PressureIn,WindDirection,WindDirectionDegrees,WindSpeedMPH,WindSpeedGustMPH,Humidity,HourlyPrecipIn,Conditions,Clouds,dailyrainin,SoftwareType,DateUTC
2013-01-20 00:00:00,40.3,30.6,30.07,West,266,5.4,9.8,68,0.00,,CLR,0.00,VWS V14.00,2013-01-20 05:00:00,
2013-01-20 00:01:00,40.2,30.5,30.07,West,277,0.0,9.8,68,0.00,,CLR,0.00,VWS V14.00,2013-01-20 05:01:00,
2013-01-20 00:03:00,40.7,31.0,30.07,WSW,253,8.1,9.8,68,0.00,,CLR,0.00,VWS V14.00,2013-01-20 05:03:00,
2013-01-20 00:08:00,40.4,30.6,30.07,West,260,3.5,9.8,68,0.00,,CLR,0.00,VWS V14.00,2013-01-20 05:08:00,
2013-01-20 00:13:00,40.5,30.7,30.07,WNW,291,0.0,9.8,68,0.00,,CLR,0.00,VWS V14.00,2013-01-20 05:13:00,
2013-01-20 00:18:00,40.2,30.3,30.07,WNW,292,5.3,7.8,67,0.00,,CLR,0.00,VWS V14.00,2013-01-20 05:18:00,
2013-01-20 00:23:00,41.0,31.0,30.07,WSW,249,8.5,8.5,67,0.00,,CLR,0.00,VWS V14.00,2013-01-20 05:23:00,
2013-01-20 00:28:00,41.6,31.4,30.06,WNW,287,9.1,9.1,67,0.00,,CLR,0.00,VWS V14.00,2013-01-20 05:28:00,
2013-01-20 00:33:00,39.3,29.1,30.06,West,278,4.4,9.5,67,0.00,,CLR,0.00,VWS V14.00,2013-01-20 05:33:00,
2013-01-20 00:38:00,37.7,27.7,30.05,WSW,256,0.0,9.5,67,0.00,,CLR,0.00,VWS V14.00,2013-01-20 05:38:00,
2013-01-20 00:43:00,40.7,30.6,30.05,West,262,7.2,7.2,67,0.00,,CLR,0.00,VWS V14.00,2013-01-20 05:43:00,
2013-01-20 00:48:00,41.6,31.5,30.05,West,270,7.0,8.3,67,0.00,,CLR,0.00,VWS V14.00,2013-01-20 05:48:00,
2013-01-20 00:53:00,40.7,30.6,30.05,NW,326,4.5,10.5,67,0.00,,CLR,0.00,VWS V14.00,2013-01-20 05:53:00,
2013-01-20 00:58:00,40.7,30.7,30.05,South,184,0.0,10.5,67,0.00,,CLR,0.00,VWS V14.00,2013-01-20 05:58:00,
2013-01-20 01:03:00,41.6,31.4,30.05,SSW,207,5.2,9.6,67,0.00,,CLR,0.00,VWS V14.00,2013-01-20 06:03:00,
2013-01-20 01:08:00,41.2,30.8,30.05,WSW,255,7.5,9.6,66,0.00,,CLR,0.00,VWS V14.00,2013-01-20 06:08:00,
2013-01-20 01:13:00,41.4,30.8,30.04,West,278,5.0,14.9,66,0.00,,CLR,0.00,VWS V14.00,2013-01-20 06:13:00,
2013-01-20 01:18:00,41.3,30.7,30.04,SSE,167,0.0,9.7,66,0.00,,CLR,0.00,VWS V14.00,2013-01-20 06:18:00,
2013-01-20 01:23:00,41.9,31.4,30.04,West,264,9.9,9.9,66,0.00,,CLR,0.00,VWS V14.00,2013-01-20 06:23:00,
2013-01-20 01:28:00,41.6,31.0,30.04,WSW,249,0.0,11.1,66,0.00,,CLR,0.00,VWS V14.00,2013-01-20 06:28:00,
2013-01-20 01:33:00,41.8,31.1,30.04,WSW,256,8.5,13.3,66,0.00,,CLR,0.00,VWS V14.00,2013-01-20 06:33:00,
2013-01-20 01:38:00,41.6,31.0,30.04,West,259,5.5,13.3,66,0.00,,CLR,0.00,VWS V14.00,2013-01-20 06:38:00,
2013-01-20 01:43:00,40.9,30.4,30.04,SW,217,2.7,5.5,66,0.00,,CLR,0.00,VWS V14.00,2013-01-20 06:43:00,
2013-01-20 01:48:00,41.3,30.9,30.04,NW,322,8.0,10.7,66,0.00,,CLR,0.00,VWS V14.00,2013-01-20 06:48:00,
2013-01-20 01:53:00,41.0,30.7,30.04,WSW,240,0.0,10.7,66,0.00,,CLR,0.00,VWS V14.00,2013-01-20 06:53:00,
2013-01-20 01:58:00,41.1,30.9,30.04,West,270,8.3,8.3,67,0.00,,CLR,0.00,VWS V14.00,2013-01-20 06:58:00,
2013-01-20 02:03:00,41.0,30.8,30.03,West,274,5.0,9.7,67,0.00,,CLR,0.00,VWS V14.00,2013-01-20 07:03:00,
2013-01-20 02:08:00,40.8,30.7,30.03,WSW,240,7.6,10.4,67,0.00,,CLR,0.00,VWS V14.00,2013-01-20 07:08:00,
2013-01-20 02:13:00,40.8,30.8,30.03,West,277,2.4,6.0,67,0.00,,CLR,0.00,VWS V14.00,2013-01-20 07:13:00,
2013-01-20 02:18:00,40.7,30.9,30.03,WNW,283,0.0,8.0,68,0.00,,CLR,0.00,VWS V14.00,2013-01-20 07:18:00,
2013-01-20 02:23:00,40.5,30.8,30.03,North,6,0.0,8.0,68,0.00,,CLR,0.00,VWS V14.00,2013-01-20 07:23:00,
2013-01-20 02:28:00,40.3,30.9,30.03,North,359,0.0,3.4,69,0.00,,CLR,0.00,VWS V14.00,2013-01-20 07:28:00,
2013-01-20 02:33:00,40.0,30.6,30.03,WSW,245,4.7,10.9,69,0.00,,CLR,0.00,VWS V14.00,2013-01-20 07:33:00,
2013-01-20 02:38:00,40.0,30.7,30.03,West,259,5.8,10.9,69,0.00,,CLR,0.00,VWS V14.00,2013-01-20 07:38:00,
2013-01-20 02:43:00,39.8,30.8,30.03,WSW,240,0.0,0.0,70,0.00,,CLR,0.00,VWS V14.00,2013-01-20 07:43:00,
2013-01-20 02:48:00,39.5,30.7,30.03,West,260,0.0,9.6,70,0.00,,CLR,0.00,VWS V14.00,2013-01-20 07:48:00,
2013-01-20 02:53:00,39.4,30.8,30.03,NW,309,3.5,9.6,71,0.00,,CLR,0.00,VWS V14.00,2013-01-20 07:53:00,
2013-01-20 02:58:00,39.2,30.7,30.03,WSW,256,4.7,5.3,71,0.00,,CLR,0.00,VWS V14.00,2013-01-20 07:58:00,
2013-01-20 03:03:00,39.0,30.7,30.03,SW,229,0.0,6.8,72,0.00,,CLR,0.00,VWS V14.00,2013-01-20 08:03:00,
2013-01-20 03:08:00,38.7,30.4,30.02,West,262,5.8,8.2,72,0.00,,CLR,0.00,VWS V14.00,2013-01-20 08:08:00,
2013-01-20 03:13:00,38.5,30.3,30.02,WNW,290,0.0,3.2,72,0.00,,CLR,0.00,VWS V14.00,2013-01-20 08:13:00,
2013-01-20 03:18:00,38.6,30.5,30.02,WSW,255,1.7,7.3,72,0.00,,CLR,0.00,VWS V14.00,2013-01-20 08:18:00,
2013-01-20 03:23:00,38.2,30.2,30.02,WNW,285,0.0,7.3,73,0.00,,CLR,0.00,VWS V14.00,2013-01-20 08:23:00,
2013-01-20 03:28:00,37.8,29.9,30.02,South,169,0.0,0.0,73,0.00,,CLR,0.00,VWS V14.00,2013-01-20 08:28:00,
2013-01-20 03:33:00,38.2,30.3,30.02,NW,307,0.0,7.9,73,0.00,,CLR,0.00,VWS V14.00,2013-01-20 08:33:00,
2013-01-20 03:38:00,38.2,30.4,30.02,WNW,292,4.2,7.9,73,0.00,,CLR,0.00,VWS V14.00,2013-01-20 08:38:00,
2013-01-20 03:43:00,39.2,31.5,30.02,West,262,7.4,7.4,74,0.00,,CLR,0.00,VWS V14.00,2013-01-20 08:43:00,
2013-01-20 03:48:00,39.3,31.6,30.02,WSW,253,3.3,7.4,74,0.00,,CLR,0.00,VWS V14.00,2013-01-20 08:48:00,
2013-01-20 03:53:00,39.2,31.7,30.02,West,270,7.1,7.4,74,0.00,,CLR,0.00,VWS V14.00,2013-01-20 08:53:00,
2013-01-20 03:58:00,38.9,31.4,30.02,West,280,6.2,6.2,74,0.00,,CLR,0.00,VWS V14.00,2013-01-20 08:58:00,
2013-01-20 04:03:00,38.7,31.3,30.02,West,267,0.0,6.2,74,0.00,,CLR,0.00,VWS V14.00,2013-01-20 09:03:00,
2013-01-20 04:08:00,38.7,31.4,30.01,West,276,0.0,6.2,75,0.00,,CLR,0.00,VWS V14.00,2013-01-20 09:08:00,
2013-01-20 04:13:00,38.4,31.2,30.01,North,11,0.0,2.8,75,0.00,,CLR,0.00,VWS V14.00,2013-01-20 09:13:00,
2013-01-20 04:18:00,38.0,30.9,30.01,North,11,0.0,2.8,75,0.00,,CLR,0.00,VWS V14.00,2013-01-20 09:18:00,
2013-01-20 04:23:00,37.9,30.9,30.01,SW,218,3.3,6.4,76,0.00,,CLR,0.00,VWS V14.00,2013-01-20 09:23:00,
2013-01-20 04:28:00,37.3,30.4,30.01,West,266,0.0,0.0,76,0.00,,CLR,0.00,VWS V14.00,2013-01-20 09:28:00,
2013-01-20 04:33:00,36.5,29.8,30.01,West,264,0.0,6.0,76,0.00,,CLR,0.00,VWS V14.00,2013-01-20 09:33:00,
2013-01-20 04:38:00,36.3,29.6,30.01,WSW,255,0.0,7.9,76,0.00,,CLR,0.00,VWS V14.00,2013-01-20 09:38:00,
2013-01-20 04:43:00,36.5,29.8,30.01,WSW,257,5.2,7.6,76,0.00,,CLR,0.00,VWS V14.00,2013-01-20 09:43:00,
2013-01-20 04:48:00,36.0,29.3,30.01,WNW,298,0.0,7.6,76,0.00,,CLR,0.00,VWS V14.00,2013-01-20 09:48:00,
2013-01-20 04:53:00,36.7,30.1,30.01,WSW,250,4.9,7.6,77,0.00,,CLR,0.00,VWS V14.00,2013-01-20 09:53:00,
2013-01-20 04:58:00,36.5,29.9,30.01,NNW,329,0.0,0.0,77,0.00,,CLR,0.00,VWS V14.00,2013-01-20 09:58:00,
2013-01-20 05:03:00,35.8,29.3,30.01,NW,315,2.4,5.7,77,0.00,,CLR,0.00,VWS V14.00,2013-01-20 10:03:00,
2013-01-20 05:08:00,35.2,28.9,30.01,NW,304,5.0,9.8,78,0.00,,CLR,0.00,VWS V14.00,2013-01-20 10:08:00,
2013-01-20 05:13:00,33.3,27.2,30.00,WSW,257,0.0,3.3,78,0.00,,CLR,0.00,VWS V14.00,2013-01-20 10:13:00,
2013-01-20 05:18:00,31.5,25.5,30.00,North,11,5.9,9.5,78,0.00,,CLR,0.00,VWS V14.00,2013-01-20 10:18:00,
2013-01-20 05:23:00,38.8,32.8,30.00,SSW,205,4.4,9.6,79,0.00,,CLR,0.00,VWS V14.00,2013-01-20 10:23:00,
2013-01-20 05:28:00,38.7,32.7,30.00,WSW,255,6.0,6.0,79,0.00,,CLR,0.00,VWS V14.00,2013-01-20 10:28:00,
2013-01-20 05:33:00,38.7,32.7,30.00,WNW,294,4.2,8.5,79,0.00,,CLR,0.00,VWS V14.00,2013-01-20 10:33:00,
2013-01-20 05:38:00,38.7,32.7,30.00,West,260,4.3,8.5,79,0.00,,CLR,0.00,VWS V14.00,2013-01-20 10:38:00,
2013-01-20 05:43:00,38.7,32.7,30.00,SW,226,0.0,6.0,79,0.00,,CLR,0.00,VWS V14.00,2013-01-20 10:43:00,
2013-01-20 05:48:00,38.7,32.8,30.00,SW,232,3.2,7.6,79,0.00,,CLR,0.00,VWS V14.00,2013-01-20 10:48:00,
2013-01-20 05:53:00,38.5,32.7,30.00,NW,304,0.0,9.8,79,0.00,,CLR,0.00,VWS V14.00,2013-01-20 10:53:00,
2013-01-20 05:58:00,38.5,32.7,30.00,SSW,198,0.0,0.0,79,0.00,,CLR,0.00,VWS V14.00,2013-01-20 10:58:00,
2013-01-20 06:03:00,38.3,32.5,30.00,West,264,5.6,5.6,80,0.00,,CLR,0.00,VWS V14.00,2013-01-20 11:03:00,
2013-01-20 06:08:00,38.1,32.3,30.00,West,270,0.0,5.6,80,0.00,,CLR,0.00,VWS V14.00,2013-01-20 11:08:00,
2013-01-20 06:13:00,38.0,32.2,30.00,West,260,0.0,4.6,80,0.00,,CLR,0.00,VWS V14.00,2013-01-20 11:13:00,
2013-01-20 06:18:00,38.0,32.2,30.00,SW,233,3.1,5.5,79,0.00,,CLR,0.00,VWS V14.00,2013-01-20 11:18:00,
2013-01-20 06:23:00,38.0,32.3,30.00,SW,233,0.0,5.5,80,0.00,,CLR,0.00,VWS V14.00,2013-01-20 11:23:00,
2013-01-20 06:28:00,37.9,32.3,30.00,WSW,239,0.0,0.0,80,0.00,,CLR,0.00,VWS V14.00,2013-01-20 11:28:00,
2013-01-20 06:33:00,37.8,32.2,30.00,WNW,283,0.0,3.2,80,0.00,,CLR,0.00,VWS V14.00,2013-01-20 11:33:00,
2013-01-20 06:38:00,37.8,32.2,30.00,WSW,243,3.0,3.2,80,0.00,,CLR,0.00,VWS V14.00,2013-01-20 11:38:00,
2013-01-20 06:43:00,37.5,32.0,30.00,West,271,0.0,0.0,80,0.00,,CLR,0.00,VWS V14.00,2013-01-20 11:43:00,
2013-01-20 06:48:00,37.5,32.0,30.00,WSW,256,0.0,4.5,80,0.00,,CLR,0.00,VWS V14.00,2013-01-20 11:48:00,
2013-01-20 06:53:00,37.4,32.0,30.00,WNW,291,0.0,4.5,80,0.00,,CLR,0.00,VWS V14.00,2013-01-20 11:53:00,
2013-01-20 06:59:00,37.4,32.0,30.00,West,280,0.0,0.0,81,0.00,,CLR,0.00,VWS V14.00,2013-01-20 11:59:00,
2013-01-20 07:04:00,37.4,32.0,30.00,NW,304,0.0,5.2,81,0.00,,CLR,0.00,VWS V14.00,2013-01-20 12:04:00,
2013-01-20 07:09:00,37.3,32.0,30.00,NW,312,0.0,6.9,81,0.00,,CLR,0.00,VWS V14.00,2013-01-20 12:09:00,
2013-01-20 07:14:00,37.4,32.1,30.00,West,277,0.0,0.0,81,0.00,,CLR,0.00,VWS V14.00,2013-01-20 12:14:00,
2013-01-20 07:19:00,37.4,32.1,30.00,West,277,0.0,0.0,81,0.00,,CLR,0.00,VWS V14.00,2013-01-20 12:19:00,
2013-01-20 07:24:00,37.3,32.1,30.00,West,277,0.0,0.0,81,0.00,,CLR,0.00,VWS V14.00,2013-01-20 12:24:00,
2013-01-20 07:29:00,37.2,32.1,30.01,NW,314,0.0,0.0,82,0.00,,CLR,0.00,VWS V14.00,2013-01-20 12:29:00,
2013-01-20 07:34:00,37.3,32.2,30.01,NW,318,3.4,6.3,82,0.00,,CLR,0.00,VWS V14.00,2013-01-20 12:34:00,
2013-01-20 07:39:00,37.3,32.3,30.01,West,273,0.0,6.3,82,0.00,,CLR,0.00,VWS V14.00,2013-01-20 12:39:00,
2013-01-20 07:44:00,37.4,32.4,30.01,West,273,0.0,0.0,82,0.00,,CLR,0.00,VWS V14.00,2013-01-20 12:44:00,
2013-01-20 07:49:00,37.3,32.3,30.01,West,267,0.0,3.2,82,0.00,,CLR,0.00,VWS V14.00,2013-01-20 12:49:00,
2013-01-20 07:54:00,37.4,32.5,30.01,West,259,0.0,5.9,82,0.00,,CLR,0.00,VWS V14.00,2013-01-20 12:54:00,
2013-01-20 07:59:00,37.3,32.4,30.01,West,259,0.0,0.0,82,0.00,,CLR,0.00,VWS V14.00,2013-01-20 12:59:00,
2013-01-20 08:04:00,37.4,32.4,30.01,West,277,2.2,7.5,82,0.00,,CLR,0.00,VWS V14.00,2013-01-20 13:04:00,
2013-01-20 08:09:00,37.6,32.4,30.01,West,280,0.0,7.5,81,0.00,,CLR,0.00,VWS V14.00,2013-01-20 13:09:00,
2013-01-20 08:14:00,37.7,32.5,30.01,West,270,0.0,0.0,81,0.00,,CLR,0.00,VWS V14.00,2013-01-20 13:14:00,
2013-01-20 08:19:00,37.8,32.4,30.01,WSW,249,0.0,5.0,81,0.00,,CLR,0.00,VWS V14.00,2013-01-20 13:19:00,
2013-01-20 08:24:00,37.9,32.4,30.01,SW,235,0.0,7.0,80,0.00,,CLR,0.00,VWS V14.00,2013-01-20 13:24:00,
2013-01-20 08:29:00,38.1,32.3,30.01,WSW,239,6.6,6.6,80,0.00,,CLR,0.00,VWS V14.00,2013-01-20 13:29:00,
2013-01-20 08:34:00,38.5,32.5,30.02,WSW,240,0.0,6.6,79,0.00,,CLR,0.00,VWS V14.00,2013-01-20 13:34:00,
2013-01-20 08:39:00,38.8,32.5,30.02,SW,222,0.0,6.6,78,0.00,,CLR,0.00,VWS V14.00,2013-01-20 13:39:00,
2013-01-20 08:44:00,39.2,32.6,30.02,SSW,193,0.0,0.0,77,0.00,,CLR,0.00,VWS V14.00,2013-01-20 13:44:00,
2013-01-20 08:49:00,39.6,32.4,30.02,West,263,0.0,7.1,75,0.00,,CLR,0.00,VWS V14.00,2013-01-20 13:49:00,
2013-01-20 08:54:00,40.3,32.4,30.02,WNW,291,8.1,8.1,73,0.00,,CLR,0.00,VWS V14.00,2013-01-20 13:54:00,
2013-01-20 08:59:00,41.0,32.4,30.02,WNW,285,0.0,5.2,71,0.00,,CLR,0.00,VWS V14.00,2013-01-20 13:59:00,
2013-01-20 09:04:00,41.5,32.2,30.02,NNW,336,3.4,11.0,69,0.00,,CLR,0.00,VWS V14.00,2013-01-20 14:04:00,
2013-01-20 09:09:00,42.1,32.1,30.02,NW,321,3.2,11.0,68,0.00,,CLR,0.00,VWS V14.00,2013-01-20 14:09:00,
2013-01-20 09:14:00,42.5,32.2,30.02,WNW,292,3.3,3.4,67,0.00,,CLR,0.00,VWS V14.00,2013-01-20 14:14:00,
2013-01-20 09:19:00,42.8,32.0,30.02,NW,312,2.5,8.1,65,0.00,,CLR,0.00,VWS V14.00,2013-01-20 14:19:00,
2013-01-20 09:24:00,42.9,31.8,30.02,West,269,3.1,8.1,65,0.00,,CLR,0.00,VWS V14.00,2013-01-20 14:24:00,
2013-01-20 09:29:00,43.8,32.4,30.02,WSW,240,4.4,4.4,64,0.00,,CLR,0.00,VWS V14.00,2013-01-20 14:29:00,
2013-01-20 09:34:00,41.0,29.5,30.02,WNW,297,3.1,6.0,63,0.00,,CLR,0.00,VWS V14.00,2013-01-20 14:34:00,
2013-01-20 09:39:00,41.9,30.1,30.02,NNW,346,0.0,7.0,63,0.00,,CLR,0.00,VWS V14.00,2013-01-20 14:39:00,
2013-01-20 09:44:00,42.2,30.2,30.03,West,271,8.0,8.0,62,0.00,,CLR,0.00,VWS V14.00,2013-01-20 14:44:00,
2013-01-20 09:49:00,43.0,30.6,30.03,NNW,328,0.0,10.5,61,0.00,,CLR,0.00,VWS V14.00,2013-01-20 14:49:00,
2013-01-20 09:54:00,44.9,32.4,30.02,West,277,2.7,11.9,61,0.00,,CLR,0.00,VWS V14.00,2013-01-20 14:54:00,
2013-01-20 09:59:00,45.8,32.8,30.03,SW,233,0.0,4.2,60,0.00,,CLR,0.00,VWS V14.00,2013-01-20 14:59:00,
2013-01-20 10:04:00,46.1,32.9,30.03,North,359,0.0,9.7,60,0.00,,CLR,0.00,VWS V14.00,2013-01-20 15:04:00,
2013-01-20 10:09:00,46.6,33.3,30.03,WSW,255,5.2,9.7,60,0.00,,CLR,0.00,VWS V14.00,2013-01-20 15:09:00,
2013-01-20 10:14:00,46.6,33.2,30.03,NW,326,2.2,9.7,59,0.00,,CLR,0.00,VWS V14.00,2013-01-20 15:14:00,
2013-01-20 10:19:00,47.0,33.5,30.03,WNW,288,0.0,9.7,59,0.00,,CLR,0.00,VWS V14.00,2013-01-20 15:19:00,
2013-01-20 10:24:00,47.3,33.3,30.03,NNW,335,0.0,14.4,58,0.00,,CLR,0.00,VWS V14.00,2013-01-20 15:24:00,
2013-01-20 10:29:00,47.7,33.5,30.03,WSW,242,4.5,14.4,58,0.00,,CLR,0.00,VWS V14.00,2013-01-20 15:29:00,
2013-01-20 10:34:00,48.0,33.3,30.03,West,259,0.0,8.7,56,0.00,,CLR,0.00,VWS V14.00,2013-01-20 15:34:00,
2013-01-20 10:39:00,48.2,33.3,30.03,West,269,2.0,11.1,56,0.00,,CLR,0.00,VWS V14.00,2013-01-20 15:39:00,
2013-01-20 10:44:00,48.7,33.8,30.02,NW,316,5.6,11.1,56,0.00,,CLR,0.00,VWS V14.00,2013-01-20 15:44:00,
2013-01-20 10:49:00,48.8,33.3,30.02,WNW,301,8.0,10.3,55,0.00,,CLR,0.00,VWS V14.00,2013-01-20 15:49:00,
2013-01-20 10:54:00,49.1,33.7,30.02,WNW,298,7.6,12.8,55,0.00,,CLR,0.00,VWS V14.00,2013-01-20 15:54:00,
2013-01-20 10:59:00,49.2,33.7,30.02,West,270,0.0,12.8,55,0.00,,CLR,0.00,VWS V14.00,2013-01-20 15:59:00,
2013-01-20 11:04:00,48.8,32.9,30.02,NNW,329,0.0,9.4,54,0.00,,CLR,0.00,VWS V14.00,2013-01-20 16:04:00,
2013-01-20 11:09:00,49.1,33.3,30.02,West,278,5.9,9.4,54,0.00,,CLR,0.00,VWS V14.00,2013-01-20 16:09:00,
2013-01-20 11:14:00,48.7,33.1,30.02,WNW,288,0.0,9.4,55,0.00,,CLR,0.00,VWS V14.00,2013-01-20 16:14:00,
2013-01-20 11:19:00,49.9,33.8,30.02,West,280,6.1,8.4,54,0.00,,CLR,0.00,VWS V14.00,2013-01-20 16:19:00,
2013-01-20 11:24:00,50.1,34.1,30.01,WNW,288,7.0,9.0,54,0.00,,CLR,0.00,VWS V14.00,2013-01-20 16:24:00,
2013-01-20 11:29:00,50.4,34.3,30.01,WNW,285,4.2,9.0,54,0.00,,CLR,0.00,VWS V14.00,2013-01-20 16:29:00,
2013-01-20 11:34:00,50.7,34.4,30.01,West,273,5.2,7.5,54,0.00,,CLR,0.00,VWS V14.00,2013-01-20 16:34:00,
2013-01-20 11:39:00,51.4,34.6,30.01,West,273,5.1,13.0,52,0.00,,CLR,0.00,VWS V14.00,2013-01-20 16:39:00,
2013-01-20 11:44:00,51.0,33.9,30.00,WSW,248,0.0,13.0,52,0.00,,CLR,0.00,VWS V14.00,2013-01-20 16:44:00,
2013-01-20 11:49:00,52.0,34.5,30.00,NNE,13,6.0,10.2,51,0.00,,CLR,0.00,VWS V14.00,2013-01-20 16:49:00,
2013-01-20 11:54:00,51.1,33.4,30.00,NNW,332,13.0,13.0,50,0.00,,CLR,0.00,VWS V14.00,2013-01-20 16:54:00,
2013-01-20 11:59:00,51.7,33.7,29.99,NNW,333,8.2,13.0,50,0.00,,CLR,0.00,VWS V14.00,2013-01-20 16:59:00,
2013-01-20 12:04:00,52.7,34.4,29.99,West,262,6.3,14.4,50,0.00,,CLR,0.00,VWS V14.00,2013-01-20 17:04:00,
2013-01-20 12:09:00,52.3,33.7,29.99,NW,315,5.9,14.4,49,0.00,,CLR,0.00,VWS V14.00,2013-01-20 17:09:00,
2013-01-20 12:14:00,52.2,34.1,29.98,WNW,290,0.0,14.4,50,0.00,,CLR,0.00,VWS V14.00,2013-01-20 17:14:00,
2013-01-20 12:19:00,52.7,34.2,29.98,West,267,8.5,10.7,49,0.00,,CLR,0.00,VWS V14.00,2013-01-20 17:19:00,
2013-01-20 12:24:00,53.2,34.3,29.98,NW,309,0.0,11.1,48,0.00,,CLR,0.00,VWS V14.00,2013-01-20 17:24:00,
2013-01-20 12:29:00,52.9,33.7,29.98,NNW,347,4.6,15.2,48,0.00,,CLR,0.00,VWS V14.00,2013-01-20 17:29:00,
2013-01-20 12:34:00,52.1,33.0,29.98,WNW,301,4.7,12.2,48,0.00,,CLR,0.00,VWS V14.00,2013-01-20 17:34:00,
2013-01-20 12:39:00,52.5,33.5,29.97,NNW,338,8.8,15.5,48,0.00,,CLR,0.00,VWS V14.00,2013-01-20 17:39:00,
2013-01-20 12:44:00,52.6,33.8,29.97,NW,322,6.8,15.5,49,0.00,,CLR,0.00,VWS V14.00,2013-01-20 17:44:00,
2013-01-20 12:49:00,52.9,34.2,29.97,NNE,22,6.2,6.3,49,0.00,,CLR,0.00,VWS V14.00,2013-01-20 17:49:00,
2013-01-20 12:54:00,52.6,33.5,29.97,WNW,294,7.8,11.2,48,0.00,,CLR,0.00,VWS V14.00,2013-01-20 17:54:00,
2013-01-20 12:59:00,52.5,33.4,29.97,NNE,13,0.0,11.2,48,0.00,,CLR,0.00,VWS V14.00,2013-01-20 17:59:00,
2013-01-20 13:04:00,52.7,33.5,29.96,West,276,12.9,13.3,48,0.00,,CLR,0.00,VWS V14.00,2013-01-20 18:04:00,
2013-01-20 13:09:00,52.4,32.9,29.96,North,1,6.3,14.0,47,0.00,,CLR,0.00,VWS V14.00,2013-01-20 18:09:00,
2013-01-20 13:14:00,52.2,32.8,29.96,NNW,339,4.5,14.0,47,0.00,,CLR,0.00,VWS V14.00,2013-01-20 18:14:00,
2013-01-20 13:19:00,52.3,32.7,29.96,NW,316,8.8,11.7,47,0.00,,CLR,0.00,VWS V14.00,2013-01-20 18:19:00,
2013-01-20 13:24:00,51.9,31.8,29.95,NNW,340,11.1,15.5,46,0.00,,CLR,0.00,VWS V14.00,2013-01-20 18:24:00,
2013-01-20 13:29:00,52.3,32.2,29.95,West,280,9.3,15.5,46,0.00,,CLR,0.00,VWS V14.00,2013-01-20 18:29:00,
2013-01-20 13:34:00,52.4,32.4,29.95,NNW,335,8.1,8.1,46,0.00,,CLR,0.00,VWS V14.00,2013-01-20 18:34:00,
2013-01-20 13:39:00,53.2,32.5,29.95,West,281,17.1,17.1,45,0.00,,CLR,0.00,VWS V14.00,2013-01-20 18:39:00,
2013-01-20 13:44:00,54.0,33.3,29.95,NW,305,5.3,17.1,45,0.00,,CLR,0.00,VWS V14.00,2013-01-20 18:44:00,
2013-01-20 13:49:00,51.6,31.7,29.95,NW,309,6.1,10.0,46,0.00,,CLR,0.00,VWS V14.00,2013-01-20 18:49:00,
2013-01-20 13:54:00,51.4,31.0,29.95,NW,307,4.4,10.0,45,0.00,,CLR,0.00,VWS V14.00,2013-01-20 18:54:00,
2013-01-20 13:59:00,52.8,32.1,29.95,SW,235,0.0,10.0,45,0.00,,CLR,0.00,VWS V14.00,2013-01-20 18:59:00,
2013-01-20 14:04:00,52.7,31.5,29.95,WNW,298,5.5,11.6,44,0.00,,CLR,0.00,VWS V14.00,2013-01-20 19:04:00,
2013-01-20 14:09:00,53.1,32.2,29.95,NNW,330,0.0,11.6,45,0.00,,CLR,0.00,VWS V14.00,2013-01-20 19:09:00,
2013-01-20 14:14:00,52.9,31.2,29.95,WNW,297,6.5,14.0,43,0.00,,CLR,0.00,VWS V14.00,2013-01-20 19:14:00,
2013-01-20 14:19:00,52.5,31.2,29.95,NNW,335,6.4,10.6,44,0.00,,CLR,0.00,VWS V14.00,2013-01-20 19:19:00,
2013-01-20 14:24:00,53.1,31.7,29.95,North,7,0.0,12.5,44,0.00,,CLR,0.00,VWS V14.00,2013-01-20 19:24:00,
2013-01-20 14:29:00,52.6,30.9,29.94,NW,322,6.2,13.1,43,0.00,,CLR,0.00,VWS V14.00,2013-01-20 19:29:00,
2013-01-20 14:34:00,53.3,31.2,29.94,WNW,292,5.3,9.1,43,0.00,,CLR,0.00,VWS V14.00,2013-01-20 19:34:00,
2013-01-20 14:39:00,53.0,31.0,29.94,NW,325,8.8,9.8,43,0.00,,CLR,0.00,VWS V14.00,2013-01-20 19:39:00,
2013-01-20 14:44:00,53.7,31.6,29.94,NNW,328,7.9,11.0,43,0.00,,CLR,0.00,VWS V14.00,2013-01-20 19:44:00,
2013-01-20 14:49:00,54.5,32.0,29.94,NNW,342,4.6,12.0,42,0.00,,CLR,0.00,VWS V14.00,2013-01-20 19:49:00,
2013-01-20 14:54:00,53.5,31.3,29.94,West,262,3.2,15.8,43,0.00,,CLR,0.00,VWS V14.00,2013-01-20 19:54:00,
2013-01-20 14:59:00,54.1,31.6,29.94,NNW,332,9.4,15.8,42,0.00,,CLR,0.00,VWS V14.00,2013-01-20 19:59:00,
2013-01-20 15:04:00,53.9,31.5,29.94,NNE,22,0.0,14.9,42,0.00,,CLR,0.00,VWS V14.00,2013-01-20 20:04:00,
2013-01-20 15:09:00,53.2,30.4,29.94,West,273,15.2,15.2,42,0.00,,CLR,0.00,VWS V14.00,2013-01-20 20:09:00,
2013-01-20 15:14:00,53.5,30.8,29.94,WNW,292,8.5,15.2,42,0.00,,CLR,0.00,VWS V14.00,2013-01-20 20:14:00,
2013-01-20 15:19:00,53.2,30.3,29.94,North,359,7.8,13.2,41,0.00,,CLR,0.00,VWS V14.00,2013-01-20 20:19:00,
2013-01-20 15:24:00,53.1,30.3,29.94,NW,323,9.9,14.0,41,0.00,,CLR,0.00,VWS V14.00,2013-01-20 20:24:00,
2013-01-20 15:29:00,53.0,30.4,29.94,WNW,295,0.0,14.0,42,0.00,,CLR,0.00,VWS V14.00,2013-01-20 20:29:00,
2013-01-20 15:34:00,53.5,30.7,29.94,WNW,292,14.2,14.2,42,0.00,,CLR,0.00,VWS V14.00,2013-01-20 20:34:00,
2013-01-20 15:39:00,52.6,30.1,29.94,NNE,22,0.0,14.2,42,0.00,,CLR,0.00,VWS V14.00,2013-01-20 20:39:00,
2013-01-20 15:44:00,52.0,29.5,29.94,North,350,4.2,14.2,42,0.00,,CLR,0.00,VWS V14.00,2013-01-20 20:44:00,
2013-01-20 15:49:00,51.4,28.8,29.94,NW,325,6.3,10.6,42,0.00,,CLR,0.00,VWS V14.00,2013-01-20 20:49:00,
2013-01-20 15:54:00,52.8,30.3,29.94,NNW,333,6.7,10.6,42,0.00,,CLR,0.00,VWS V14.00,2013-01-20 20:54:00,
2013-01-20 15:59:00,52.8,30.1,29.94,NNE,13,3.4,11.1,42,0.00,,CLR,0.00,VWS V14.00,2013-01-20 20:59:00,
2013-01-20 16:04:00,53.1,28.2,29.94,NW,318,3.5,14.0,38,0.00,,CLR,0.00,VWS V14.00,2013-01-20 21:04:00,
2013-01-20 16:09:00,53.8,28.2,29.94,North,349,7.9,17.6,37,0.00,,CLR,0.00,VWS V14.00,2013-01-20 21:09:00,
2013-01-20 16:14:00,53.3,27.8,29.94,North,357,7.8,17.6,37,0.00,,CLR,0.00,VWS V14.00,2013-01-20 21:14:00,
2013-01-20 16:19:00,53.2,27.2,29.94,WNW,297,3.5,14.0,36,0.00,,CLR,0.00,VWS V14.00,2013-01-20 21:19:00,
2013-01-20 16:24:00,53.2,27.5,29.94,NNE,32,6.9,15.5,37,0.00,,CLR,0.00,VWS V14.00,2013-01-20 21:24:00,
2013-01-20 16:29:00,53.9,28.4,29.94,NW,314,5.5,15.5,37,0.00,,CLR,0.00,VWS V14.00,2013-01-20 21:29:00,
2013-01-20 16:34:00,53.4,27.8,29.94,North,7,4.3,12.5,37,0.00,,CLR,0.00,VWS V14.00,2013-01-20 21:34:00,
2013-01-20 16:39:00,53.7,28.1,29.95,North,3,6.3,12.5,37,0.00,,CLR,0.00,VWS V14.00,2013-01-20 21:39:00,
2013-01-20 16:44:00,53.4,28.0,29.95,NNE,13,0.0,12.5,37,0.00,,CLR,0.00,VWS V14.00,2013-01-20 21:44:00,
2013-01-20 16:49:00,53.3,27.8,29.95,NNW,340,5.6,7.5,37,0.00,,CLR,0.00,VWS V14.00,2013-01-20 21:49:00,
2013-01-20 16:54:00,53.1,27.3,29.95,NNW,332,9.1,9.1,37,0.00,,CLR,0.00,VWS V14.00,2013-01-20 21:54:00,
2013-01-20 16:59:00,53.2,27.7,29.95,NW,326,2.9,9.9,37,0.00,,CLR,0.00,VWS V14.00,2013-01-20 21:59:00,
2013-01-20 17:04:00,52.8,27.7,29.95,North,349,6.3,9.4,38,0.00,,CLR,0.00,VWS V14.00,2013-01-20 22:04:00,
2013-01-20 17:09:00,53.4,28.8,29.95,North,359,6.0,9.4,38,0.00,,CLR,0.00,VWS V14.00,2013-01-20 22:09:00,
2013-01-20 17:14:00,52.0,27.5,29.95,NW,314,7.2,9.4,38,0.00,,CLR,0.00,VWS V14.00,2013-01-20 22:14:00,
2013-01-20 17:19:00,52.8,28.2,29.96,North,359,7.7,8.7,38,0.00,,CLR,0.00,VWS V14.00,2013-01-20 22:19:00,
2013-01-20 17:25:00,52.2,27.7,29.96,North,352,0.0,11.7,38,0.00,,CLR,0.00,VWS V14.00,2013-01-20 22:25:00,
2013-01-20 17:30:00,52.8,28.9,29.97,North,10,0.0,11.7,40,0.00,,CLR,0.00,VWS V14.00,2013-01-20 22:30:00,
2013-01-20 17:34:00,52.4,28.7,29.97,NW,321,3.3,10.0,40,0.00,,CLR,0.00,VWS V14.00,2013-01-20 22:34:00,
2013-01-20 17:39:00,53.1,29.1,29.97,North,354,7.9,14.4,39,0.00,,CLR,0.00,VWS V14.00,2013-01-20 22:39:00,
2013-01-20 17:44:00,53.0,29.0,29.97,NW,321,6.2,14.4,39,0.00,,CLR,0.00,VWS V14.00,2013-01-20 22:44:00,
2013-01-20 17:49:00,53.2,29.5,29.97,North,3,0.0,9.7,40,0.00,,CLR,0.00,VWS V14.00,2013-01-20 22:49:00,
2013-01-20 17:54:00,53.0,29.3,29.98,NW,309,5.3,10.4,40,0.00,,CLR,0.00,VWS V14.00,2013-01-20 22:54:00,
2013-01-20 17:59:00,52.8,29.4,29.98,North,359,0.0,10.4,40,0.00,,CLR,0.00,VWS V14.00,2013-01-20 22:59:00,
2013-01-20 18:04:00,52.3,29.3,29.98,NNE,32,0.0,9.8,41,0.00,,CLR,0.00,VWS V14.00,2013-01-20 23:04:00,
2013-01-20 18:09:00,52.6,30.1,29.99,NNW,346,0.0,9.8,42,0.00,,CLR,0.00,VWS V14.00,2013-01-20 23:09:00,
2013-01-20 18:14:00,52.0,30.2,29.99,North,359,0.0,11.4,43,0.00,,CLR,0.00,VWS V14.00,2013-01-20 23:14:00,
2013-01-20 18:19:00,51.1,29.5,29.99,North,11,5.2,8.5,43,0.00,,CLR,0.00,VWS V14.00,2013-01-20 23:19:00,
2013-01-20 18:25:00,51.4,30.2,30.00,North,4,5.8,8.5,44,0.00,,CLR,0.00,VWS V14.00,2013-01-20 23:25:00,
2013-01-20 18:30:00,51.2,30.2,30.00,North,1,0.0,8.5,44,0.00,,CLR,0.00,VWS V14.00,2013-01-20 23:30:00,
2013-01-20 18:35:00,51.1,30.4,30.00,North,1,5.5,8.7,45,0.00,,CLR,0.00,VWS V14.00,2013-01-20 23:35:00,
2013-01-20 18:40:00,51.3,30.9,30.00,North,359,0.0,8.7,45,0.00,,CLR,0.00,VWS V14.00,2013-01-20 23:40:00,
2013-01-20 18:45:00,51.0,31.1,30.00,NNE,24,0.0,8.7,46,0.00,,CLR,0.00,VWS V14.00,2013-01-20 23:45:00,
2013-01-20 18:50:00,50.6,30.8,30.00,NNE,21,3.1,8.4,46,0.00,,CLR,0.00,VWS V14.00,2013-01-20 23:50:00,
2013-01-20 18:55:00,50.1,30.6,30.01,North,8,3.4,8.4,47,0.00,,CLR,0.00,VWS V14.00,2013-01-20 23:55:00,
2013-01-20 19:00:00,49.7,30.5,30.01,North,359,0.0,8.4,47,0.00,,CLR,0.00,VWS V14.00,2013-01-21 00:00:00,
2013-01-20 19:05:00,49.4,30.6,30.01,North,6,0.0,6.3,48,0.00,,CLR,0.00,VWS V14.00,2013-01-21 00:05:00,
2013-01-20 19:10:00,49.2,30.3,30.01,North,11,2.2,9.9,48,0.00,,CLR,0.00,VWS V14.00,2013-01-21 00:10:00,
2013-01-20 19:15:00,49.2,30.6,30.01,NNW,340,0.0,9.9,48,0.00,,CLR,0.00,VWS V14.00,2013-01-21 00:15:00,
2013-01-20 19:20:00,48.9,30.8,30.01,North,359,0.0,9.4,49,0.00,,CLR,0.00,VWS V14.00,2013-01-21 00:20:00,
2013-01-20 19:25:00,48.8,31.0,30.01,NNE,14,0.0,9.4,50,0.00,,CLR,0.00,VWS V14.00,2013-01-21 00:25:00,
2013-01-20 19:30:00,48.4,30.6,30.01,NNW,343,6.7,9.4,50,0.00,,CLR,0.00,VWS V14.00,2013-01-21 00:30:00,
2013-01-20 19:35:00,48.3,30.7,30.01,ENE,59,7.4,7.7,50,0.00,,CLR,0.00,VWS V14.00,2013-01-21 00:35:00,
2013-01-20 19:40:00,48.4,30.6,30.01,NNE,17,3.3,7.7,50,0.00,,CLR,0.00,VWS V14.00,2013-01-21 00:40:00,
2013-01-20 19:45:00,48.2,30.7,30.01,NNW,338,0.0,7.7,51,0.00,,CLR,0.00,VWS V14.00,2013-01-21 00:45:00,
2013-01-20 19:50:00,48.3,31.0,30.01,NW,315,0.0,7.0,51,0.00,,CLR,0.00,VWS V14.00,2013-01-21 00:50:00,
2013-01-20 19:55:00,48.0,31.0,30.01,North,1,4.3,9.0,52,0.00,,CLR,0.00,VWS V14.00,2013-01-21 00:55:00,
2013-01-20 20:00:00,48.0,31.2,30.01,North,8,3.2,9.1,52,0.00,,CLR,0.00,VWS V14.00,2013-01-21 01:00:00,
2013-01-20 20:05:00,47.6,31.0,30.01,North,7,0.0,7.0,52,0.00,,CLR,0.00,VWS V14.00,2013-01-21 01:05:00,
2013-01-20 20:10:00,47.5,31.5,30.01,North,11,0.0,7.2,54,0.00,,CLR,0.00,VWS V14.00,2013-01-21 01:10:00,
2013-01-20 20:15:00,47.3,31.5,30.02,North,11,0.0,7.2,54,0.00,,CLR,0.00,VWS V14.00,2013-01-21 01:15:00,
2013-01-20 20:20:00,47.0,31.4,30.02,North,357,5.8,5.8,54,0.00,,CLR,0.00,VWS V14.00,2013-01-21 01:20:00,
2013-01-20 20:25:00,47.2,31.4,30.02,North,359,0.0,7.4,54,0.00,,CLR,0.00,VWS V14.00,2013-01-21 01:25:00,
2013-01-20 20:30:00,47.0,31.5,30.02,North,350,0.0,7.4,55,0.00,,CLR,0.00,VWS V14.00,2013-01-21 01:30:00,
2013-01-20 20:35:00,46.8,31.6,30.02,NNE,21,0.0,3.5,55,0.00,,CLR,0.00,VWS V14.00,2013-01-21 01:35:00,
2013-01-20 20:40:00,46.4,31.5,30.02,NNE,21,0.0,3.5,56,0.00,,CLR,0.00,VWS V14.00,2013-01-21 01:40:00,
2013-01-20 20:45:00,46.3,31.4,30.02,NNE,21,0.0,3.5,56,0.00,,CLR,0.00,VWS V14.00,2013-01-21 01:45:00,
2013-01-20 20:50:00,45.7,30.9,30.02,NNE,21,0.0,0.0,56,0.00,,CLR,0.00,VWS V14.00,2013-01-21 01:50:00,
2013-01-20 20:55:00,45.4,30.9,30.02,North,357,5.5,5.5,57,0.00,,CLR,0.00,VWS V14.00,2013-01-21 01:55:00,
2013-01-20 21:00:00,45.7,31.0,30.02,North,0,0.0,5.5,56,0.00,,CLR,0.00,VWS V14.00,2013-01-21 02:00:00,
2013-01-20 21:05:00,45.7,31.0,30.02,North,0,0.0,0.0,56,0.00,,CLR,0.00,VWS V14.00,2013-01-21 02:05:00,
2013-01-20 21:10:00,45.5,30.9,30.02,North,0,0.0,0.0,56,0.00,,CLR,0.00,VWS V14.00,2013-01-21 02:10:00,
2013-01-20 21:15:00,45.5,31.0,30.02,North,0,0.0,0.0,57,0.00,,CLR,0.00,VWS V14.00,2013-01-21 02:15:00,
2013-01-20 21:20:00,45.0,30.8,30.02,WNW,288,0.0,3.4,57,0.00,,CLR,0.00,VWS V14.00,2013-01-21 02:20:00,
2013-01-20 21:25:00,44.3,30.6,30.02,WNW,288,0.0,3.4,58,0.00,,CLR,0.00,VWS V14.00,2013-01-21 02:25:00,
2013-01-20 21:30:00,44.1,31.0,30.02,NNE,22,0.0,4.5,60,0.00,,CLR,0.00,VWS V14.00,2013-01-21 02:30:00,
2013-01-20 21:35:00,43.9,31.1,30.02,NNW,343,0.0,6.2,60,0.00,,CLR,0.00,VWS V14.00,2013-01-21 02:35:00,
2013-01-20 21:40:00,44.3,31.1,30.02,NNE,17,0.0,6.2,59,0.00,,CLR,0.00,VWS V14.00,2013-01-21 02:40:00,
2013-01-20 21:45:00,44.8,31.2,30.02,WNW,288,0.0,6.2,59,0.00,,CLR,0.00,VWS V14.00,2013-01-21 02:45:00,
2013-01-20 21:50:00,45.0,31.2,30.02,WNW,288,0.0,0.0,58,0.00,,CLR,0.00,VWS V14.00,2013-01-21 02:50:00,
2013-01-20 21:55:00,45.2,31.2,30.02,WNW,288,0.0,0.0,58,0.00,,CLR,0.00,VWS V14.00,2013-01-21 02:55:00,
2013-01-20 22:00:00,45.1,31.1,30.02,WNW,288,0.0,0.0,58,0.00,,CLR,0.00,VWS V14.00,2013-01-21 03:00:00,
2013-01-20 22:05:00,44.8,31.3,30.02,WNW,288,0.0,0.0,59,0.00,,CLR,0.00,VWS V14.00,2013-01-21 03:05:00,
2013-01-20 22:10:00,44.0,31.2,30.02,WNW,288,0.0,0.0,60,0.00,,CLR,0.00,VWS V14.00,2013-01-21 03:10:00,
2013-01-20 22:15:00,42.2,29.9,30.02,WNW,288,0.0,0.0,62,0.00,,CLR,0.00,VWS V14.00,2013-01-21 03:15:00,
2013-01-20 22:20:00,42.7,30.7,30.02,WNW,288,0.0,0.0,62,0.00,,CLR,0.00,VWS V14.00,2013-01-21 03:20:00,
2013-01-20 22:25:00,41.9,30.0,30.02,WNW,288,0.0,0.0,62,0.00,,CLR,0.00,VWS V14.00,2013-01-21 03:25:00,
2013-01-20 22:30:00,41.7,29.7,30.02,WNW,288,0.0,0.0,62,0.00,,CLR,0.00,VWS V14.00,2013-01-21 03:30:00,
2013-01-20 22:35:00,42.9,30.7,30.02,WNW,288,0.0,0.0,62,0.00,,CLR,0.00,VWS V14.00,2013-01-21 03:35:00,
2013-01-20 22:40:00,42.6,30.4,30.02,WNW,288,0.0,0.0,62,0.00,,CLR,0.00,VWS V14.00,2013-01-21 03:40:00,
2013-01-20 22:45:00,42.4,30.3,30.02,WNW,288,0.0,0.0,62,0.00,,CLR,0.00,VWS V14.00,2013-01-21 03:45:00,
2013-01-20 22:50:00,42.2,30.5,30.02,WNW,288,0.0,0.0,63,0.00,,CLR,0.00,VWS V14.00,2013-01-21 03:50:00,
2013-01-20 22:55:00,41.4,30.2,30.02,WNW,288,0.0,0.0,64,0.00,,CLR,0.00,VWS V14.00,2013-01-21 03:55:00,
2013-01-20 23:00:00,40.7,29.9,30.02,WNW,288,0.0,0.0,65,0.00,,CLR,0.00,VWS V14.00,2013-01-21 04:00:00,
2013-01-20 23:05:00,40.4,30.2,30.02,WNW,288,0.0,0.0,67,0.00,,CLR,0.00,VWS V14.00,2013-01-21 04:05:00,
2013-01-20 23:10:00,39.7,30.1,30.02,WNW,288,0.0,0.0,68,0.00,,CLR,0.00,VWS V14.00,2013-01-21 04:10:00,
2013-01-20 23:15:00,38.0,28.9,30.02,WNW,288,0.0,0.0,70,0.00,,CLR,0.00,VWS V14.00,2013-01-21 04:15:00,
2013-01-20 23:20:00,41.0,32.0,30.02,WNW,288,0.0,0.0,70,0.00,,CLR,0.00,VWS V14.00,2013-01-21 04:20:00,
2013-01-20 23:25:00,38.7,29.9,30.02,WNW,288,0.0,0.0,70,0.00,,CLR,0.00,VWS V14.00,2013-01-21 04:25:00,
2013-01-20 23:30:00,40.2,31.8,30.02,WNW,288,0.0,0.0,72,0.00,,CLR,0.00,VWS V14.00,2013-01-21 04:30:00,
2013-01-20 23:35:00,40.3,32.0,30.02,WNW,288,0.0,0.0,72,0.00,,CLR,0.00,VWS V14.00,2013-01-21 04:35:00,
2013-01-20 23:40:00,40.3,32.0,30.02,WNW,288,0.0,0.0,72,0.00,,CLR,0.00,VWS V14.00,2013-01-21 04:40:00,
2013-01-20 23:45:00,40.0,32.2,30.02,WNW,288,0.0,0.0,74,0.00,,CLR,0.00,VWS V14.00,2013-01-21 04:45:00,
2013-01-20 23:50:00,39.4,31.9,30.02,WNW,288,0.0,0.0,74,0.00,,CLR,0.00,VWS V14.00,2013-01-21 04:50:00,
2013-01-20 23:55:00,39.4,31.9,30.02,WNW,288,0.0,0.0,74,0.00,,CLR,0.00,VWS V14.00,2013-01-21 04:55:00,